Погода в Ошминском

Россия / Нижегородская область     57°40′57″N   47°20′15″E
темп.,
°C
ветер,
м/с
пор.,
м/с
влажн.,
%
обл.,
%
осадки,
мм/ч
давл.,
гПа
погр.,
м
9 марта, вт
вт900:00−13ссз249786 0.1 100288
03:00−15ссз239789 0.1 100549
06:00−14с3696100 0.1 1007254
09:00−15с359598 0.2 1009339
12:00−12с2492100 0.1 1010497
15:00−12с3591100 0.2 1011612
18:00−14с3895100 0.2 1013449
21:00−17с4994100 0.3 1015400
10 марта, ср
ср1000:00−21с4996100 0.0 1016332
03:00−24с399690 0.1 1017255
06:00−26с499584 0.0 1019287
09:00−24с489480 0.0 1020371
12:00−18с478723 0.0 1021572
15:00−15с478112 0.0 1021847
18:00−19сз239484 0.0 102242
21:00−18сз389789 0.1 1022318
11 марта, чт
чт1100:00−22сз369871 0.0 1022111
03:00−20зсз489766 0.1 1022245
06:00−18сз41094100 0.1 1021444
09:00−13сз4991100 0.3 1021579
12:00−9сз4891100 0.1 1022628
15:00−6сз5986100 0.1 1022808
18:00−9зсз4119083 0.0 1023401
21:00−12зсз3119442 0.0 1024319
12 марта, пт
пт1200:00−14зсз399560 0.0 1025239
03:00−17з389662 0.0 1026196
06:00−18з389765 0.0 1027190
09:00−15з489382 0.0 1028281
12:00−11зюз498694 0.0 1028512
15:00−8зюз598250 0.0 1027735
18:00−12зюз311864 0.0 1027308
21:00−13зюз311902 0.0 1028324
13 марта, сб
сб1300:00−15юз312880 0.0 1029282
03:00−16юз312890 0.0 1029272
06:00−17ююз310920 0.0 1029239
09:00−13ююз48880 0.0 1028310
12:00−8ююз510850 0.0 1027565
15:00−7ююз511830 0.0 1026705
18:00−10ю513870 0.0 1025559
21:00−11ююз5138930 0.0 1024567